Regional Weather Roundup
Issued by NWS Burlington, VT

Home | Current Version | Previous Version | Text Only | Print | Product List | Glossary On
Versions: 1 2 3 4 5 6 7 8 9 10 11 12 13 14 15 16 17 18 19 20 21 22 23 24 25 26 27 28 29 30 31 32 33 34 35 36 37 38 39 40 41 42 43 44 45 46 47 48 49 50
000
ASUS41 KBTV 292130
RWRBTV
VERMONT REGIONAL WEATHER ROUNDUP
NATIONAL WEATHER SERVICE BURLINGTON VT
400 PM EST THU JAN 29 2015

NOTE: "FAIR" INDICATES FEW OR NO CLOUDS BELOW 12,000 FEET WITH NO
SIGNIFICANT WEATHER AND/OR OBSTRUCTIONS TO VISIBILITY.

* THESE REPORTS ARE NOT UNDER NWS QUALITY CONTROL AND/OR DO NOT
  REPORT WEATHER SUCH AS PRECIPITATION AND FOG.

VTZ001>019-292200-
_____VERMONT_____


CITY           SKY/WX    TMP DP  RH WIND       PRES   REMARKS
BURLINGTON     CLOUDY    29   3  33 S8        29.99F
MONTPELIER     MOCLDY    28   3  34 S6        30.04F
MORRISVILLE    CLOUDY    31   2  29 SW5       30.02F
ST. JOHNSBURY*   N/A     25   4  40 MISG      30.03F
LYNDONVILLE*   CLOUDY    24   1  36 SE3       30.03F
MIDDLEBURY*    CLOUDY    27   3  35 S6        30.01F
RUTLAND*       CLOUDY   N/A N/A N/A SE15      30.00S
SPRINGFIELD    PTCLDY    30   2  30 S5        30.09F
HIGHGATE*      CLOUDY    32   4  30 S8        29.97F
NEWPORT*       MOCLDY    27   6  41 SE14      30.00F WCI  15
BENNINGTON     MOCLDY    36   1  22 SE8       30.01F
SUTTON*          N/A     23 N/A N/A MISG        N/A
GALLUP MILLS*    N/A     25 N/A N/A MISG        N/A
UNION VILLAGE*   N/A     27 N/A N/A MISG        N/A
MT. MANSFIELD*   N/A     18 N/A N/A CALM        N/A

_____LAKE CHAMPLAIN_____


CITY           SKY/WX    TMP DP  RH WIND       PRES   REMARKS
BURTON ISLAND*   N/A     32   7  34 SE22        N/A
COLCHESTER RF*   N/A     30  12  47 S30         N/A  WCI  15
DIAMOND ISL*     N/A     28  10  47 S15         N/A  WCI  17

$$

NYZ007-026>031-035-052-083-292200-
_____NORTHERN NEW YORK_____


CITY           SKY/WX    TMP DP  RH WIND       PRES   REMARKS
PLATTSBURGH    CLOUDY    27  13  55 SE14      29.97F WCI  16
SARANAC LAKE   CLOUDY    32   2  27 SW17      29.86S
MASSENA        LGT SNOW  22  13  68 NE13      29.91F VSB 3/4 WCI  10
OGDENSBURG*    CLEAR     34  28  80 SE9       29.82F
STARK FALLS*     N/A     30 N/A N/A SE21        N/A  WCI  17
WATERTOWN        N/A     38   9  30 S13G32    29.80F
FT DRUM        CLOUDY    30  16  56 SE22      29.80F WCI  17
ALBANY         CLOUDY    30   3  31 S16G23    30.07F WCI  19
GLENS FALLS    CLOUDY    24   5  44 S6        30.06F

$$
NHZ002-005-011-292200-
_____NEW HAMPSHIRE_____


CITY           SKY/WX    TMP DP  RH WIND       PRES   REMARKS
LEBANON        PTCLDY    27   7  42 S6        30.08F
KEENE          PTCLDY    28   3  34 SW3       30.12S
MT WASHINGTON  MOCLDY    14 -29  13 S39         N/A  WCI  -9
PLYMOUTH       FAIR      31   7  35 CALM      30.11S
WHITEFIELD     PTCLDY    24  12  60 W3        30.03F

$$

_____REGIONAL QUEBEC LOCATIONS_____


CITY           SKY/WX    TMP DP  RH WIND       PRES   REMARKS
MONTREAL       CLOUDY    19   7  58 NE12      29.99F WCI   7
QUEBEC CITY    MOCLDY    18   3  53 N7        30.06F
SHERBROOKE     PTCLDY    25  12  58 E2        30.00F

_____REGIONAL ONTARIO LOCATIONS_____


CITY           SKY/WX    TMP DP  RH WIND       PRES   REMARKS
OTTAWA         FLURRIES  18  16  93 E16       29.82F WCI   3

______KEY______
VSB  - VISIBILITY IN MILES
WCI  - WIND CHILL INDEX
HX   - HEAT INDEX
$$
NNNN


USA.gov is the U.S. government's official web portal to all federal, state and local government web resources and services.